STARLINK-32788, 62502

Orbit data source: Space-Track

STARLINK-32788, 62502 is a payload satellite owned by SpaceX/Seattle (US) in LEO that was launched on Mon, 06 Jan 2025 UTC via an FALCON 9 launch vehicle from the Air Force Eastern Test Range (AFETR). Payload-class satellites include a variety of spacecraft equipped with specific instruments for various scientific and technological missions. These include communications satellites like Starlink; space stations such as the ISS; scientific satellites like the Hubble; Earth observation satellites from companies like Planet Labs, Umbra, and HawkEye 360; GPS; miniature CubeSats for education and research; and military/defense satellites.

Loading next visibility...
Identifier
62502, 2025-003R
Orbit
LEO
Country
Flag of USUS
Related business
Manufacturer
SpaceX/Seattle
Mission
Operational Commercial Communications
Bus & Motor
STARLINK V2M, Unknown motor
Mass
730 kg wet, ~700 kg dry
Launch date (UTC)
2025-01-06 (1 year ago)
Launch vehicle
FALCON 9
Launch site
Air Force Eastern Test Range (AFETR)
Object type
Payload
Rocket body
Debris
Shape & HBR
Box + 2 Pan, 17.7 m
Radar Cross Section
33.884 m², Large (>1 m²)

Expand to show TLE details & history
Last TLE update: 1 day ago

TLE from 1 day ago
0 STARLINK-32788
1 62502U 25003R   26170.43796114  .00012362  00000-0  45788-3 0  9995
2 62502  43.0001  74.2661 0001597 269.5729  90.4940 15.27588890 82114
Epoch: 2026-06-19T10:30Z
TLE epoch observation values (Epoch: 2026-06-19T10:30:39.842Z)
Latitude
Longitude
8.93316°
Altitude
482.808 km
Speed
7.626 km/s
True Right ascension
04h 57m 03s
True Declination
0° 00' 00"
Sunlit
Object was in daylight at epoch
Visualization orbit readout
Latitude
Unknown
Longitude
Unknown
Altitude
Unknown
Speed
Unknown
Apparent Right ascension
Unknown
Apparent Declination
Unknown
Sunlit
N/A
Visualization observer readout
Local Sidereal Time
07:17:12
Azimuth
Unknown
Elevation
Unknown
Doppler factor
Unknown
Orbital elements
Apogee altitude
486.064 km
Perigee altitude
483.872 km
Semi-major axis
6,863.105 km
Eccentricity
0.00016
Inclination
43.0001°
RAAN
74.2661°
Arg. of periapsis
269.5729°
True anomaly
90.5123°
Mean anomaly
90.494°
Eccentric anomaly
90.50315°
Mean motion
3.81735 °/min
Orbital period
94.31 mins
BSTAR
0.00045788
Loading maneuver chart data...
Computing Atmospheric mass density...
Loading historical data...
Loading historical data...
Loading historical data...
Loading historical data...
Loading historical data...
Loading historical data...
Loading historical data...

Documentation

Showing up to 5 results
|